Weather History for Sheridan, WY

Change the Weather History Date:

Friday, April 12, 2013

  Actual Average Record
Temperature  
Mean Temperature 39 °F 43 °F  
Max Temperature 47 °F 56 °F 79 °F (2003)
Min Temperature 31 °F 29 °F 5 °F (1997)
Degree Days  
Heating Degree Days 26 22  
Month to date heating degree days 311 285  
Since 1 July heating degree days 6590 6744  
Cooling Degree Days 0 0  
Month to date cooling degree days 0 0  
Year to date cooling degree days 0 0  
Moisture  
Dew Point 29 °F    
Average Humidity 67    
Maximum Humidity 96    
Minimum Humidity 38    
Precipitation  
Precipitation 0.06 in 0.04 in 1.13 in (1991)
Month to date precipitation 0.75 0.50  
Year to date precipitation 2.77 2.58  
Sea Level Pressure  
Sea Level Pressure 29.96 in    
Wind  
Wind Speed 14 mph (NW)    
Max Wind Speed 29 mph    
Max Gust Speed 33 mph    
Visibility 9 miles    
Events Rain , Snow    
T = Trace of Precipitation, MM = Missing Value Source: NWS Daily Summary

Daily Weather History Graph

Daily Weather History Graph

Search for Another Location

Airport:

Trip Planner

Search our weather history database for the weather conditions in past years. The results will help you decide how hot, cold, wet, or windy it might be!

Date:

Astronomy

Apr. 12, 2013 Rise Set
Actual Time 6:28 AM MDT 7:49 PM MDT
Civil Twilight 5:58 AM MDT 8:20 PM MDT
Nautical Twilight 5:21 AM MDT 8:56 PM MDT
Astronomical Twilight 4:42 AM MDT 9:35 PM MDT
Moon 7:34 AM MDT (4/12) 10:29 PM MDT (4/12)
Length of Visible Light 14h 22m
Length of Day
13h 21m
Waxing Crescent, 5% of the Moon is Illuminated
Apr 12
Waxing Crescent
Apr 18
First Quarter
Apr 25
Full
May 2
Last Quarter
May 9
New

Hourly Weather History & Observations

Time (MDT) Temp. Windchill Dew Point Humidity Pressure Visibility Wind Dir Wind Speed Gust Speed Precip Events Conditions
12:53 AM 36.0 °F 29.6 °F 30.0 °F 79% 29.90 in 10.0 mi West 8.1 mph - N/A   Overcast
1:53 AM 36.0 °F 27.1 °F 33.1 °F 89% 29.92 in 8.0 mi North 13.8 mph - 0.00 in Rain Rain
2:00 AM 35.6 °F 27.1 °F 33.8 °F 93% 29.89 in 8.0 mi NW 12.7 mph - 0.01 in Rain Rain
2:16 AM 35.6 °F 26.2 °F 33.8 °F 93% 29.89 in 10.0 mi West 15.0 mph - 0.02 in Rain Light Rain
2:25 AM 35.6 °F 27.5 °F 33.8 °F 93% 29.89 in 10.0 mi West 11.5 mph - 0.02 in   Overcast
2:53 AM 36.0 °F 28.5 °F 33.1 °F 89% 29.93 in 10.0 mi WNW 10.4 mph - 0.02 in   Overcast
3:53 AM 36.0 °F 27.5 °F 33.1 °F 89% 29.93 in 10.0 mi WNW 12.7 mph - N/A   Overcast
4:53 AM 34.0 °F 24.6 °F 32.0 °F 92% 29.96 in 10.0 mi WNW 13.8 mph - 0.00 in   Overcast
5:09 AM 33.8 °F 25.3 °F 32.0 °F 93% 29.92 in 5.0 mi WNW 11.5 mph - 0.00 in Snow Light Snow
5:23 AM 33.8 °F 27.7 °F 32.0 °F 93% 29.92 in 9.0 mi WNW 6.9 mph - 0.01 in   Overcast
5:30 AM 33.8 °F 26.4 °F 32.0 °F 93% 29.92 in 10.0 mi WNW 9.2 mph - 0.01 in   Overcast
5:42 AM 33.8 °F 25.8 °F 32.0 °F 93% 29.92 in 2.5 mi NW 10.4 mph - 0.01 in Snow Light Snow
5:53 AM 33.1 °F 21.9 °F 30.9 °F 92% 29.97 in 5.0 mi WNW 18.4 mph 27.6 mph 0.03 in Snow Light Snow
6:19 AM 33.8 °F 23.9 °F 30.2 °F 87% 29.93 in 10.0 mi NW 15.0 mph - 0.00 in   Overcast
6:44 AM 33.8 °F 21.6 °F 30.2 °F 87% 29.93 in 2.5 mi WNW 23.0 mph 33.4 mph 0.00 in Snow Light Snow
6:53 AM 33.1 °F 22.2 °F 30.9 °F 92% 29.99 in 3.0 mi WNW 17.3 mph 28.8 mph 0.01 in Snow Light Snow
7:12 AM 35.6 °F 26.6 °F 30.2 °F 81% 29.94 in 10.0 mi NW 13.8 mph 24.2 mph 0.00 in   Overcast
7:53 AM 37.0 °F 26.4 °F 30.0 °F 76% 30.00 in 10.0 mi NW 20.7 mph 26.5 mph 0.00 in   Overcast
8:53 AM 39.0 °F 29.0 °F 32.0 °F 76% 30.02 in 10.0 mi NW 20.7 mph 29.9 mph N/A   Mostly Cloudy
9:26 AM 35.6 °F 23.4 °F 30.2 °F 81% 29.99 in 1.8 mi NW 25.3 mph 29.9 mph 0.00 in Snow Light Snow
9:34 AM 35.6 °F 24.5 °F 30.2 °F 81% 30.00 in 3.0 mi NW 20.7 mph - 0.00 in Snow Light Snow
9:53 AM 36.0 °F 24.4 °F 30.9 °F 82% 30.07 in 9.0 mi NW 23.0 mph - 0.00 in Snow Light Snow
10:22 AM 35.6 °F 24.2 °F 28.4 °F 75% 30.01 in 10.0 mi NW 21.9 mph 26.5 mph 0.00 in   Overcast
10:53 AM 37.0 °F 25.9 °F 28.0 °F 70% 30.08 in 10.0 mi NNW 23.0 mph 27.6 mph 0.00 in   Overcast
11:20 AM 37.4 °F 26.1 °F 28.4 °F 70% 30.02 in 10.0 mi NW 24.2 mph 29.9 mph N/A   Overcast
11:53 AM 41.0 °F 30.9 °F 28.0 °F 60% 30.06 in 10.0 mi NW 24.2 mph 32.2 mph N/A   Mostly Cloudy
12:53 PM 42.1 °F 33.1 °F 30.0 °F 62% 30.06 in 10.0 mi NW 20.7 mph 26.5 mph N/A   Overcast
1:53 PM 44.1 °F 35.9 °F 28.9 °F 55% 30.03 in 10.0 mi NNW 19.6 mph 28.8 mph N/A   Partly Cloudy
2:53 PM 45.0 °F 36.4 °F 27.0 °F 49% 30.01 in 10.0 mi NNW 23.0 mph 29.9 mph N/A   Clear
3:53 PM 45.0 °F 37.9 °F 27.0 °F 49% 30.00 in 10.0 mi North 16.1 mph 25.3 mph N/A   Partly Cloudy
4:53 PM 45.0 °F 39.3 °F 24.1 °F 44% 29.97 in 10.0 mi North 11.5 mph - N/A   Clear
5:53 PM 46.0 °F 41.4 °F 23.0 °F 40% 29.95 in 10.0 mi North 9.2 mph - N/A   Clear
6:53 PM 44.1 °F 41.5 °F 21.0 °F 40% 29.95 in 10.0 mi North 4.6 mph - N/A   Mostly Cloudy
7:53 PM 41.0 °F - 21.9 °F 47% 29.94 in 10.0 mi Calm Calm - N/A   Partly Cloudy
8:53 PM 35.1 °F 31.0 °F 23.0 °F 61% 29.94 in 10.0 mi SSW 4.6 mph - N/A   Clear
9:53 PM 33.1 °F 26.9 °F 23.0 °F 66% 29.93 in 10.0 mi SSE 6.9 mph - N/A   Clear
10:53 PM 33.1 °F 30.0 °F 23.0 °F 66% 29.89 in 10.0 mi East 3.5 mph - N/A   Clear
11:53 PM 33.1 °F 28.7 °F 23.0 °F 66% 29.83 in 10.0 mi SSW 4.6 mph - N/A   Clear